STARLINK-5756, 55598

Orbit data source: Space-Track

STARLINK-5756, 55598 is a payload satellite owned by SpaceX/Seattle (US) in LEO that was launched on Sun, 12 Feb 2023 UTC via an FALCON 9 launch vehicle from the Air Force Eastern Test Range (AFETR). Payload-class satellites include a variety of spacecraft equipped with specific instruments for various scientific and technological missions. These include communications satellites like Starlink; space stations such as the ISS; scientific satellites like the Hubble; Earth observation satellites from companies like Planet Labs, Umbra, and HawkEye 360; GPS; miniature CubeSats for education and research; and military/defense satellites.

Loading next visibility...
Identifier
55598, 2023-020AF
Orbit
LEO
Country
Flag of USUS
Related business
Manufacturer
SpaceX/Seattle
Mission
Operational Commercial Communications
Bus & Motor
STARLINK, Unknown motor
Mass
305 kg wet, ~290 kg dry
Launch date (UTC)
2023-02-12 (3 years ago)
Launch vehicle
FALCON 9
Launch site
Air Force Eastern Test Range (AFETR)
Object type
Payload
Rocket body
Debris
Shape & HBR
Box + 1 Pan, 4.4 m
Radar Cross Section
13.562 m², Large (>1 m²)

Expand to show TLE details & history
Last TLE update: 15 hours ago

TLE from 15 hours ago
0 STARLINK-5756
1 55598U 23020AF  25260.24864226 -.00002808  00000-0 -19290-3 0  9992
2 55598  43.0018 214.5598 0001285 262.8225  97.2472 15.02531804142970
Epoch: 2025-09-17T05:58Z
TLE epoch observation values (Epoch: 2025-09-17T05:58:02.691Z)
Latitude
0.00004°
Longitude
128.62132°
Altitude
558.983 km
Speed
7.584 km/s
True Right ascension
14h 18m 14s
True Declination
0° 00' 00"
Sunlit
Object was in daylight at epoch
Visualization orbit readout
Latitude
Unknown
Longitude
Unknown
Altitude
Unknown
Speed
Unknown
Apparent Right ascension
Unknown
Apparent Declination
Unknown
Sunlit
N/A
Visualization observer readout
Local Sidereal Time
14:11:03
Azimuth
Unknown
Elevation
Unknown
Doppler factor
Unknown
Orbital elements
Apogee altitude
561.908 km
Perigee altitude
560.124 km
Semi-major axis
6,939.153 km
Eccentricity
0.00013
Inclination
43.0018°
RAAN
214.5598°
Arg. of periapsis
262.8225°
True anomaly
97.26181°
Mean anomaly
97.2472°
Eccentric anomaly
97.2545°
Mean motion
3.75477 °/min
Orbital period
95.88 mins
BSTAR
-0.0001929
Loading maneuver chart data...
Computing Atmospheric mass density...
Loading historical data...
Loading historical data...
Loading historical data...
Loading historical data...
Loading historical data...
Loading historical data...
Loading historical data...

Documentation

Showing up to 5 results
|